{"data":{"norad_id":61752,"epoch":"2026-09-22T20:29:36.259296Z","epoch_age_seconds":96610,"freshness":"FRESH","line1":"1 61752U 24199T   26265.85389189  .00001039  00000+0  92323-4 0  9993","line2":"2 61752  97.3188  99.1938 0007456  92.4633 267.7445 14.98066308149742","mean_motion":14.98066308,"eccentricity":0.0007456,"inclination_deg":97.3188,"raan_deg":99.1938,"arg_perigee_deg":92.4633,"mean_anomaly_deg":267.7445,"bstar":9.2323e-5,"rev_number":14974,"period_min":96.123916031626,"perigee_km":567.68878440839,"apogee_km":578.05412821845,"semimajor_km":6951.0084563134,"source":"CELESTRAK","updated_at":"2026-09-23T09:00:21.027214Z"}}